AirNav   Air Wisconsin pilot careers
 
 570 users online  

2R0 Waynesboro Municipal Airport
Waynesboro, Mississippi, USA

GOING TO WAYNESBORO?


FAA INFORMATION EFFECTIVE 19 JULY 2018

Location

FAA Identifier: 2R0
Lat/Long: 31-38-36.7940N / 088-38-06.3420W
31-38.613233N / 088-38.105700W
31.6435539 / -88.6350950
(estimated)
Elevation: 168.5 ft. / 51 m (estimated)
Variation: 02E (1985)
From city: 2 miles S of WAYNESBORO, MS
Time zone: UTC -5 (UTC -6 during Standard Time)
Zip code: 39367

Airport Operations

Airport use: Open to the public
Activation date: 09/1964
Control tower: no
ARTCC: MEMPHIS CENTER
FSS: GREENWOOD FLIGHT SERVICE STATION
NOTAMs facility: GWO (NOTAM-D service available)
Attendance: M-F 0800-1600
FOR ARPT ATTENDANT AFTER HRS CALL 601-735-9282, 601-410-3650 OR JOE ZAYDEL AT 601-528-3460.
Wind indicator: lighted
Segmented circle: yes
Lights: ACTVT PAPI RWY 02 & 20; MIRL RWY 02/20 - CTAF.
Beacon: white-green (lighted land airport)
Operates sunset to sunrise.

Airport Communications

CTAF/UNICOM: 122.8

Nearby radio navigation aids

VOR radial/distance  VOR name  Freq  Var
GCVr342/33.6GREENE COUNTY VORTAC115.7005E
LBYr064/38.4EATON VORTAC110.6005E

Airport Services

Fuel available: 100LL
FUEL 24 HR CREDIT CARD SVC AVBL.
Parking: tiedowns
Bottled oxygen: NONE
Bulk oxygen: NONE

Runway Information

Runway 2/20

Dimensions: 5000 x 75 ft. / 1524 x 23 m
Surface: asphalt, in good condition
Weight bearing capacity: 
Single wheel: 15.0
Runway edge lights: medium intensity
RUNWAY 2  RUNWAY 20
Latitude: 31-38.231117N31-38.995350N
Longitude: 088-38.286817W088-37.924567W
Elevation: 167.0 ft.168.5 ft.
Gradient: 0.1%0.1%
Traffic pattern: leftleft
Displaced threshold: no665 ft.
Markings: nonprecision, in good conditionnonprecision, in good condition
Visual slope indicator: 2-light PAPI on left2-light PAPI on left
Touchdown point: yes, no lightsyes, no lights
Obstructions: 73 ft. trees, 1700 ft. from runway, 100 ft. right of centerline, 20:1 slope to clear23 ft. rr, 600 ft. from runway, 17:1 slope to clear
RWY 20 APCH RATIO 50+:1 TO DSPLCD THLD.

Airport Ownership and Management from official FAA records

Ownership: Publicly-owned
Owner: CITY OF WAYNESBORO
714 WAYNE ST.
WAYNESBORO, MS 39367
Phone 601-735-4874
MARTY STADALIS - CHAIRMAN ARPT BOARD.
Manager: JANICE WOLFF
P.O. BOX 872
WAYNESBORO, MS 39367
Phone 601-735-9682

Airport Operational Statistics

Aircraft based on the field: 10
Single engine airplanes: 8
Multi engine airplanes: 2
    
Aircraft operations: avg 58/week *
51% local general aviation
43% transient general aviation
7% military
* for 12-month period ending 19 April 2018

Instrument Procedures

There are no published instrument procedures at 2R0.

Some nearby airports with instrument procedures:

5R1 - Roy Wilcox Airport (25 nm SE)
KLUL - Hesler-Noble Field Airport (28 nm W)
KPIB - Hattiesburg-Laurel Regional Airport (37 nm W)
09A - Butler-Choctaw County Airport (39 nm NE)
KHBG - Hattiesburg Bobby L Chain Municipal Airport (39 nm SW)
 
Loc | Ops | Rwys | IFR | FBO | Links
Com | Nav | Svcs | Stats | Notes


 
Area around 2R0 (Waynesboro Municipal Airport)
 
Road maps at: MapQuest Bing Google
 
Aerial photo
WARNING: Photo may not be current or correct
Aerial photo of 2R0 (Waynesboro Municipal Airport)
Do you have a better or more recent aerial photo of Waynesboro Municipal Airport that you would like to share? If so, please send us your photo.

 
Sectional chart

 
Airport distance calculator
Flying to Waynesboro Municipal Airport? Find the distance to fly.

From to 2R0

Sunrise and sunset
Times for 22-Jul-2018
 Local
(UTC-5)
 Zulu
(UTC)
Morning civil twilight05:3810:38
Sunrise06:0511:05
Sunset19:5700:57
Evening civil twilight20:2401:24

Current date and time
Zulu (UTC)  22-Jul-2018 05:22:31
Local (UTC-5)  22-Jul-2018 00:22:31
 
METAR
KPIB 
36nm W 
220456Z AUTO 00000KT 10SM CLR 28/23 A2990 RMK AO2 SLP121 T02780233
KLUL 
37nm W 
220455Z AUTO 25003KT 10SM CLR 27/23 A2988 RMK AO2 T02700225
KHBG 
39nm SW 
220453Z AUTO 27005KT 10SM CLR 29/23 A2989 RMK AO2 SLP119 T02890228 TSNO
KMEI 
42nm N 
220458Z AUTO 00000KT 10SM CLR 28/26 A2987 RMK AO2 SLP111 T02780256
TAF
KPIB 
36nm W 
211749Z 2118/2218 26008KT P6SM FEW090 SCT130 FM221500 29010KT P6SM FEW040 SCT080 SCT250
KHBG 
39nm SW 
211749Z 2118/2218 26008KT P6SM FEW090 SCT130 FM221500 29010KT P6SM FEW040 SCT080 SCT250
KMEI 
42nm N 
211749Z 2118/2218 25008KT P6SM FEW090 SCT130 FM220100 27005KT P6SM VCTS SCT050 BKN070CB FM220700 00000KT P6SM SCT090 FM221500 32008KT P6SM FEW050
NOTAMs
Click for the latest NOTAMs
NOTAMs are issued by the DoD/FAA and will open in a separate window not controlled by AirNav.

 

 
 

FBO, Fuel Providers, and Aircraft Ground Support

  
 Business Name 
 
 Contact 
 
 Services / Description 
 
Fuel Prices
 
Comments
  
Waynesboro Municipal Airport 601-735-9682
no information available

If you are affiliated with Waynesboro Municipal Airport and would like to show here your services, contact info, web link, logo, and more, click here
100LL
SS $3.89 
 Updated 23-May-2018
 
   9 read write
SS=Self service
Update Fuel Prices
 

Would you like to see your business listed on this page?

 If your business provides an interesting product or service to pilots, flight crews, aircraft, or users of the Waynesboro Municipal Airport, you should consider listing it here.  To start the listing process, click on the button below
 
Add a business
 

Other Pages about Waynesboro Municipal Airport

Update a link
 
Copyright © AirNav, LLC. All rights reserved. Privacy Policy  Contact